Zurück zum Katalog

COSMOS 1275 DEB

AktivPO
NORAD 12728·DEBRIS·🇷🇺 Russia

Gestartet Jun 4, 1981 von Plesetsk Cosmodrome

Loading…

Nächste Überflüge (nächste 24 Stunden)

TLE

AktuellSource: Space-Track

Epoche: Sep 14, 2026, 18:38 UTC

1 12728U 81053BV  26257.77695247  .00000379  00000-0  35856-3 0  9995
2 12728  82.8105  12.1590 0053386 314.8170 208.5461 13.78138612250635

Verfolge COSMOS 1275 DEB in Echtzeit mit AllMySat

Download on the App Store